owner,sensor,date,latitude,longitude,air_pressure(mBar),qcFlag 
WAVCIS,ioos:station:WAVCIS:CSI03:1,2012-11-01T00:00:00Z,29.4412,-92.0613,1009.27,11111222 
WAVCIS,ioos:station:WAVCIS:CSI03:1,2012-11-01T01:00:00Z,29.4412,-92.0613,1009.69,11111222 
WAVCIS,ioos:station:WAVCIS:CSI03:1,2012-11-01T02:00:00Z,29.4412,-92.0613,1009.99,11111222 
WAVCIS,ioos:station:WAVCIS:CSI03:1,2012-11-01T03:00:00Z,29.4412,-92.0613,1010.01,11111222 
WAVCIS,ioos:station:WAVCIS:CSI03:1,2012-11-01T04:00:00Z,29.4412,-92.0613,1010.2,11111222 
WAVCIS,ioos:station:WAVCIS:CSI03:1,2012-11-01T05:00:00Z,29.4412,-92.0613,1010.16,11111222 
WAVCIS,ioos:station:WAVCIS:CSI03:1,2012-11-01T06:00:00Z,29.4412,-92.0613,1010.37,11111222 
WAVCIS,ioos:station:WAVCIS:CSI03:1,2012-11-01T07:00:00Z,29.4412,-92.0613,1010.38,11111222 
WAVCIS,ioos:station:WAVCIS:CSI03:1,2012-11-01T08:00:00Z,29.4412,-92.0613,1010.18,11111222 
WAVCIS,ioos:station:WAVCIS:CSI03:1,2012-11-01T09:00:00Z,29.4412,-92.0613,1010.03,11111222 
WAVCIS,ioos:station:WAVCIS:CSI03:1,2012-11-01T10:00:00Z,29.4412,-92.0613,1010.13,11111222 
WAVCIS,ioos:station:WAVCIS:CSI03:1,2012-11-01T11:00:00Z,29.4412,-92.0613,1010.49,11111222 
WAVCIS,ioos:station:WAVCIS:CSI03:1,2012-11-01T12:00:00Z,29.4412,-92.0613,1010.84,11111222 
WAVCIS,ioos:station:WAVCIS:CSI03:1,2012-11-01T13:00:00Z,29.4412,-92.0613,1011.37,11111222 
WAVCIS,ioos:station:WAVCIS:CSI03:1,2012-11-01T14:00:00Z,29.4412,-92.0613,1011.89,11111222 
WAVCIS,ioos:station:WAVCIS:CSI03:1,2012-11-01T15:00:00Z,29.4412,-92.0613,1012.27,11111222 
WAVCIS,ioos:station:WAVCIS:CSI03:1,2012-11-01T16:00:00Z,29.4412,-92.0613,1012.63,11111222 
WAVCIS,ioos:station:WAVCIS:CSI03:1,2012-11-01T17:00:00Z,29.4412,-92.0613,1012.29,11111222 
WAVCIS,ioos:station:WAVCIS:CSI03:1,2012-11-01T18:00:00Z,29.4412,-92.0613,1011.56,11111222 
WAVCIS,ioos:station:WAVCIS:CSI03:1,2012-11-01T19:00:00Z,29.4412,-92.0613,1010.69,11111222 
WAVCIS,ioos:station:WAVCIS:CSI03:1,2012-11-01T20:00:00Z,29.4412,-92.0613,1010.0,11111222 
WAVCIS,ioos:station:WAVCIS:CSI03:1,2012-11-01T21:00:00Z,29.4412,-92.0613,1009.67,11111222 
WAVCIS,ioos:station:WAVCIS:CSI03:1,2012-11-01T22:00:00Z,29.4412,-92.0613,1009.57,11111222 
WAVCIS,ioos:station:WAVCIS:CSI03:1,2012-11-01T23:00:00Z,29.4412,-92.0613,1009.65,11111222 
WAVCIS,ioos:station:WAVCIS:CSI03:1,2012-11-02T00:00:00Z,29.4412,-92.0613,1009.95,11111222 
WAVCIS,ioos:station:WAVCIS:CSI03:1,2012-11-02T01:00:00Z,29.4412,-92.0613,1010.34,11111222 
WAVCIS,ioos:station:WAVCIS:CSI03:1,2012-11-02T02:00:00Z,29.4412,-92.0613,1010.67,11111222 
WAVCIS,ioos:station:WAVCIS:CSI03:1,2012-11-02T03:00:00Z,29.4412,-92.0613,1011.09,11111222 
WAVCIS,ioos:station:WAVCIS:CSI03:1,2012-11-02T04:00:00Z,29.4412,-92.0613,1011.19,11111222 
WAVCIS,ioos:station:WAVCIS:CSI03:1,2012-11-02T05:00:00Z,29.4412,-92.0613,1011.05,11111222 
WAVCIS,ioos:station:WAVCIS:CSI03:1,2012-11-02T06:00:00Z,29.4412,-92.0613,1010.56,11111222 
WAVCIS,ioos:station:WAVCIS:CSI03:1,2012-11-02T07:00:00Z,29.4412,-92.0613,1010.22,11111222 
WAVCIS,ioos:station:WAVCIS:CSI03:1,2012-11-02T08:00:00Z,29.4412,-92.0613,1010.1,11111222 
WAVCIS,ioos:station:WAVCIS:CSI03:1,2012-11-02T09:00:00Z,29.4412,-92.0613,1010.07,11111222 
WAVCIS,ioos:station:WAVCIS:CSI03:1,2012-11-02T10:00:00Z,29.4412,-92.0613,1010.18,11111222 
WAVCIS,ioos:station:WAVCIS:CSI03:1,2012-11-02T11:00:00Z,29.4412,-92.0613,1010.71,11111222 
WAVCIS,ioos:station:WAVCIS:CSI03:1,2012-11-02T12:00:00Z,29.4412,-92.0613,1011.04,11111222 
WAVCIS,ioos:station:WAVCIS:CSI03:1,2012-11-02T13:00:00Z,29.4412,-92.0613,1011.54,11111222 
WAVCIS,ioos:station:WAVCIS:CSI03:1,2012-11-02T14:00:00Z,29.4412,-92.0613,1012.19,11111222 
WAVCIS,ioos:station:WAVCIS:CSI03:1,2012-11-02T15:00:00Z,29.4412,-92.0613,1012.78,11111222 
WAVCIS,ioos:station:WAVCIS:CSI03:1,2012-11-02T16:00:00Z,29.4412,-92.0613,1012.9,11111222 
WAVCIS,ioos:station:WAVCIS:CSI03:1,2012-11-02T17:00:00Z,29.4412,-92.0613,1012.63,11111222 
WAVCIS,ioos:station:WAVCIS:CSI03:1,2012-11-02T18:00:00Z,29.4412,-92.0613,1012.08,11111222 
WAVCIS,ioos:station:WAVCIS:CSI03:1,2012-11-02T19:00:00Z,29.4412,-92.0613,1011.49,11111222 
WAVCIS,ioos:station:WAVCIS:CSI03:1,2012-11-02T20:00:00Z,29.4412,-92.0613,1011.1,11111222 
WAVCIS,ioos:station:WAVCIS:CSI03:1,2012-11-02T21:00:00Z,29.4412,-92.0613,1010.83,11111222 
WAVCIS,ioos:station:WAVCIS:CSI03:1,2012-11-02T22:00:00Z,29.4412,-92.0613,1010.66,11111222 
WAVCIS,ioos:station:WAVCIS:CSI03:1,2012-11-02T23:00:00Z,29.4412,-92.0613,1010.76,11111222 
WAVCIS,ioos:station:WAVCIS:CSI03:1,2012-11-03T00:00:00Z,29.4412,-92.0613,1010.9,11111222 
WAVCIS,ioos:station:WAVCIS:CSI03:1,2012-11-03T01:00:00Z,29.4412,-92.0613,1011.35,11111222 
WAVCIS,ioos:station:WAVCIS:CSI03:1,2012-11-03T02:00:00Z,29.4412,-92.0613,1011.72,11111222 
WAVCIS,ioos:station:WAVCIS:CSI03:1,2012-11-03T03:00:00Z,29.4412,-92.0613,1012.01,11111222 
WAVCIS,ioos:station:WAVCIS:CSI03:1,2012-11-03T04:00:00Z,29.4412,-92.0613,1012.23,11111222 
WAVCIS,ioos:station:WAVCIS:CSI03:1,2012-11-03T05:00:00Z,29.4412,-92.0613,1011.88,11111222 
WAVCIS,ioos:station:WAVCIS:CSI03:1,2012-11-03T06:00:00Z,29.4412,-92.0613,1011.68,11111222 
WAVCIS,ioos:station:WAVCIS:CSI03:1,2012-11-03T07:00:00Z,29.4412,-92.0613,1011.57,11111222 
WAVCIS,ioos:station:WAVCIS:CSI03:1,2012-11-03T08:00:00Z,29.4412,-92.0613,1011.33,11111222 
WAVCIS,ioos:station:WAVCIS:CSI03:1,2012-11-03T09:00:00Z,29.4412,-92.0613,1011.26,11111222 
WAVCIS,ioos:station:WAVCIS:CSI03:1,2012-11-03T10:00:00Z,29.4412,-92.0613,1011.45,11111222 
WAVCIS,ioos:station:WAVCIS:CSI03:1,2012-11-03T11:00:00Z,29.4412,-92.0613,1011.86,11111222 
WAVCIS,ioos:station:WAVCIS:CSI03:1,2012-11-03T12:00:00Z,29.4412,-92.0613,1012.13,11111222 
WAVCIS,ioos:station:WAVCIS:CSI03:1,2012-11-03T13:00:00Z,29.4412,-92.0613,1012.7,11111222 
WAVCIS,ioos:station:WAVCIS:CSI03:1,2012-11-03T14:00:00Z,29.4412,-92.0613,1013.67,11111222 
WAVCIS,ioos:station:WAVCIS:CSI03:1,2012-11-03T15:00:00Z,29.4412,-92.0613,1014.22,11111222 
WAVCIS,ioos:station:WAVCIS:CSI03:1,2012-11-03T16:00:00Z,29.4412,-92.0613,1014.47,11111222 
WAVCIS,ioos:station:WAVCIS:CSI03:1,2012-11-03T17:00:00Z,29.4412,-92.0613,1014.3,11111222 
WAVCIS,ioos:station:WAVCIS:CSI03:1,2012-11-03T18:00:00Z,29.4412,-92.0613,1013.52,11111222 
WAVCIS,ioos:station:WAVCIS:CSI03:1,2012-11-03T19:00:00Z,29.4412,-92.0613,1012.74,11111222 
WAVCIS,ioos:station:WAVCIS:CSI03:1,2012-11-03T20:00:00Z,29.4412,-92.0613,1011.99,11111222 
WAVCIS,ioos:station:WAVCIS:CSI03:1,2012-11-03T21:00:00Z,29.4412,-92.0613,1011.35,11111222 
WAVCIS,ioos:station:WAVCIS:CSI03:1,2012-11-03T22:00:00Z,29.4412,-92.0613,1011.49,11111222 
WAVCIS,ioos:station:WAVCIS:CSI03:1,2012-11-03T23:00:00Z,29.4412,-92.0613,1011.75,11111222 
WAVCIS,ioos:station:WAVCIS:CSI03:1,2012-11-04T00:00:00Z,29.4412,-92.0613,1011.92,11111222 
WAVCIS,ioos:station:WAVCIS:CSI03:1,2012-11-04T01:00:00Z,29.4412,-92.0613,1012.19,11111222 
WAVCIS,ioos:station:WAVCIS:CSI03:1,2012-11-04T02:00:00Z,29.4412,-92.0613,1012.43,11111222 
WAVCIS,ioos:station:WAVCIS:CSI03:1,2012-11-04T03:00:00Z,29.4412,-92.0613,1012.74,11111222 
WAVCIS,ioos:station:WAVCIS:CSI03:1,2012-11-04T04:00:00Z,29.4412,-92.0613,1012.57,11111222 
WAVCIS,ioos:station:WAVCIS:CSI03:1,2012-11-04T05:00:00Z,29.4412,-92.0613,1012.37,11111222 
WAVCIS,ioos:station:WAVCIS:CSI03:1,2012-11-04T06:00:00Z,29.4412,-92.0613,1011.87,11111222 
WAVCIS,ioos:station:WAVCIS:CSI03:1,2012-11-04T07:00:00Z,29.4412,-92.0613,1011.91,11111222 
WAVCIS,ioos:station:WAVCIS:CSI03:1,2012-11-04T08:00:00Z,29.4412,-92.0613,1011.88,11111222 
WAVCIS,ioos:station:WAVCIS:CSI03:1,2012-11-04T09:00:00Z,29.4412,-92.0613,1011.33,11111222 
WAVCIS,ioos:station:WAVCIS:CSI03:1,2012-11-04T10:00:00Z,29.4412,-92.0613,1011.28,11111222 
WAVCIS,ioos:station:WAVCIS:CSI03:1,2012-11-04T11:00:00Z,29.4412,-92.0613,1011.71,11111222 
WAVCIS,ioos:station:WAVCIS:CSI03:1,2012-11-04T12:00:00Z,29.4412,-92.0613,1011.95,11111222 
WAVCIS,ioos:station:WAVCIS:CSI03:1,2012-11-04T13:00:00Z,29.4412,-92.0613,1012.78,11111222 
WAVCIS,ioos:station:WAVCIS:CSI03:1,2012-11-04T14:00:00Z,29.4412,-92.0613,1012.59,11111222 
WAVCIS,ioos:station:WAVCIS:CSI03:1,2012-11-04T15:00:00Z,29.4412,-92.0613,1012.67,11111222 
WAVCIS,ioos:station:WAVCIS:CSI03:1,2012-11-04T16:00:00Z,29.4412,-92.0613,1012.82,11111222 
WAVCIS,ioos:station:WAVCIS:CSI03:1,2012-11-04T17:00:00Z,29.4412,-92.0613,1012.05,11111222 
WAVCIS,ioos:station:WAVCIS:CSI03:1,2012-11-04T18:00:00Z,29.4412,-92.0613,1012.06,11111222 
WAVCIS,ioos:station:WAVCIS:CSI03:1,2012-11-04T19:00:00Z,29.4412,-92.0613,1011.69,11111222 
WAVCIS,ioos:station:WAVCIS:CSI03:1,2012-11-04T20:00:00Z,29.4412,-92.0613,1011.06,11111222 
WAVCIS,ioos:station:WAVCIS:CSI03:1,2012-11-04T21:00:00Z,29.4412,-92.0613,1010.69,11111222 
WAVCIS,ioos:station:WAVCIS:CSI03:1,2012-11-04T22:00:00Z,29.4412,-92.0613,1010.76,11111222 
WAVCIS,ioos:station:WAVCIS:CSI03:1,2012-11-04T23:00:00Z,29.4412,-92.0613,1010.78,11111222 
WAVCIS,ioos:station:WAVCIS:CSI03:1,2012-11-05T00:00:00Z,29.4412,-92.0613,1010.86,11111222 
WAVCIS,ioos:station:WAVCIS:CSI03:1,2012-11-05T01:00:00Z,29.4412,-92.0613,1011.24,11111222 
WAVCIS,ioos:station:WAVCIS:CSI03:1,2012-11-05T02:00:00Z,29.4412,-92.0613,1011.39,11111222 
WAVCIS,ioos:station:WAVCIS:CSI03:1,2012-11-05T03:00:00Z,29.4412,-92.0613,1011.84,11111222 
WAVCIS,ioos:station:WAVCIS:CSI03:1,2012-11-05T04:00:00Z,29.4412,-92.0613,1012.12,11111222 
WAVCIS,ioos:station:WAVCIS:CSI03:1,2012-11-05T05:00:00Z,29.4412,-92.0613,1011.92,11111222 
WAVCIS,ioos:station:WAVCIS:CSI03:1,2012-11-05T06:00:00Z,29.4412,-92.0613,1011.63,11111222 
WAVCIS,ioos:station:WAVCIS:CSI03:1,2012-11-05T07:00:00Z,29.4412,-92.0613,1011.36,11111222 
WAVCIS,ioos:station:WAVCIS:CSI03:1,2012-11-05T08:00:00Z,29.4412,-92.0613,1011.0,11111222 
WAVCIS,ioos:station:WAVCIS:CSI03:1,2012-11-05T09:00:00Z,29.4412,-92.0613,1011.06,11111222 
WAVCIS,ioos:station:WAVCIS:CSI03:1,2012-11-05T10:00:00Z,29.4412,-92.0613,1011.13,11111222 
WAVCIS,ioos:station:WAVCIS:CSI03:1,2012-11-05T11:00:00Z,29.4412,-92.0613,1011.28,11111222 
WAVCIS,ioos:station:WAVCIS:CSI03:1,2012-11-05T12:00:00Z,29.4412,-92.0613,1011.42,11111222 
WAVCIS,ioos:station:WAVCIS:CSI03:1,2012-11-05T13:00:00Z,29.4412,-92.0613,1011.6,11111222 
WAVCIS,ioos:station:WAVCIS:CSI03:1,2012-11-05T14:00:00Z,29.4412,-92.0613,1012.08,11111222 
WAVCIS,ioos:station:WAVCIS:CSI03:1,2012-11-05T15:00:00Z,29.4412,-92.0613,1012.27,11111222 
WAVCIS,ioos:station:WAVCIS:CSI03:1,2012-11-05T16:00:00Z,29.4412,-92.0613,1012.21,11111222 
WAVCIS,ioos:station:WAVCIS:CSI03:1,2012-11-05T17:00:00Z,29.4412,-92.0613,1011.8,11111222 
WAVCIS,ioos:station:WAVCIS:CSI03:1,2012-11-05T18:00:00Z,29.4412,-92.0613,1010.37,11111222 
WAVCIS,ioos:station:WAVCIS:CSI03:1,2012-11-05T19:00:00Z,29.4412,-92.0613,1009.74,11111222 
WAVCIS,ioos:station:WAVCIS:CSI03:1,2012-11-05T20:00:00Z,29.4412,-92.0613,1008.71,11111222 
WAVCIS,ioos:station:WAVCIS:CSI03:1,2012-11-05T21:00:00Z,29.4412,-92.0613,1008.42,11111222 
WAVCIS,ioos:station:WAVCIS:CSI03:1,2012-11-05T22:00:00Z,29.4412,-92.0613,1008.16,11111222 
WAVCIS,ioos:station:WAVCIS:CSI03:1,2012-11-05T23:00:00Z,29.4412,-92.0613,1007.55,11111222 
WAVCIS,ioos:station:WAVCIS:CSI03:1,2012-11-06T00:00:00Z,29.4412,-92.0613,1007.55,11111222 
WAVCIS,ioos:station:WAVCIS:CSI03:1,2012-11-06T01:00:00Z,29.4412,-92.0613,1007.58,11111222 
WAVCIS,ioos:station:WAVCIS:CSI03:1,2012-11-06T02:00:00Z,29.4412,-92.0613,1007.72,11111222 
WAVCIS,ioos:station:WAVCIS:CSI03:1,2012-11-06T03:00:00Z,29.4412,-92.0613,1008.38,11111222 
WAVCIS,ioos:station:WAVCIS:CSI03:1,2012-11-06T04:00:00Z,29.4412,-92.0613,1008.29,11111222 
WAVCIS,ioos:station:WAVCIS:CSI03:1,2012-11-06T05:00:00Z,29.4412,-92.0613,1008.5,11111222 
WAVCIS,ioos:station:WAVCIS:CSI03:1,2012-11-06T06:00:00Z,29.4412,-92.0613,1008.65,11111222 
WAVCIS,ioos:station:WAVCIS:CSI03:1,2012-11-06T07:00:00Z,29.4412,-92.0613,1008.69,11111222 
WAVCIS,ioos:station:WAVCIS:CSI03:1,2012-11-06T08:00:00Z,29.4412,-92.0613,1009.09,11111222 
WAVCIS,ioos:station:WAVCIS:CSI03:1,2012-11-06T09:00:00Z,29.4412,-92.0613,1009.5,11111222 
WAVCIS,ioos:station:WAVCIS:CSI03:1,2012-11-06T10:00:00Z,29.4412,-92.0613,1009.7,11111222 
WAVCIS,ioos:station:WAVCIS:CSI03:1,2012-11-06T11:00:00Z,29.4412,-92.0613,1009.67,11111222 
WAVCIS,ioos:station:WAVCIS:CSI03:1,2012-11-06T12:00:00Z,29.4412,-92.0613,1010.11,11111222 
WAVCIS,ioos:station:WAVCIS:CSI03:1,2012-11-06T13:00:00Z,29.4412,-92.0613,1010.61,11111222 
WAVCIS,ioos:station:WAVCIS:CSI03:1,2012-11-06T14:00:00Z,29.4412,-92.0613,1011.31,11111222 
WAVCIS,ioos:station:WAVCIS:CSI03:1,2012-11-06T15:00:00Z,29.4412,-92.0613,1011.81,11111222 
WAVCIS,ioos:station:WAVCIS:CSI03:1,2012-11-06T16:00:00Z,29.4412,-92.0613,1012.19,11111222 
WAVCIS,ioos:station:WAVCIS:CSI03:1,2012-11-06T17:00:00Z,29.4412,-92.0613,1012.04,11111222 
WAVCIS,ioos:station:WAVCIS:CSI03:1,2012-11-06T18:00:00Z,29.4412,-92.0613,1011.38,11111222 
WAVCIS,ioos:station:WAVCIS:CSI03:1,2012-11-06T19:00:00Z,29.4412,-92.0613,1010.33,11111222 
WAVCIS,ioos:station:WAVCIS:CSI03:1,2012-11-06T20:00:00Z,29.4412,-92.0613,1010.09,11111222 
WAVCIS,ioos:station:WAVCIS:CSI03:1,2012-11-06T21:00:00Z,29.4412,-92.0613,1010.17,11111222 
WAVCIS,ioos:station:WAVCIS:CSI03:1,2012-11-06T22:00:00Z,29.4412,-92.0613,1010.3,11111222 
WAVCIS,ioos:station:WAVCIS:CSI03:1,2012-11-06T23:00:00Z,29.4412,-92.0613,1010.35,11111222 
WAVCIS,ioos:station:WAVCIS:CSI03:1,2012-11-07T00:00:00Z,29.4412,-92.0613,1010.95,11111222 
WAVCIS,ioos:station:WAVCIS:CSI03:1,2012-11-07T01:00:00Z,29.4412,-92.0613,1011.67,11111222 
WAVCIS,ioos:station:WAVCIS:CSI03:1,2012-11-07T02:00:00Z,29.4412,-92.0613,1012.24,11111222 
WAVCIS,ioos:station:WAVCIS:CSI03:1,2012-11-07T03:00:00Z,29.4412,-92.0613,1012.73,11111222 
WAVCIS,ioos:station:WAVCIS:CSI03:1,2012-11-07T04:00:00Z,29.4412,-92.0613,1012.58,11111222 
WAVCIS,ioos:station:WAVCIS:CSI03:1,2012-11-07T05:00:00Z,29.4412,-92.0613,1012.56,11111222 
WAVCIS,ioos:station:WAVCIS:CSI03:1,2012-11-07T06:00:00Z,29.4412,-92.0613,1012.59,11111222 
WAVCIS,ioos:station:WAVCIS:CSI03:1,2012-11-07T07:00:00Z,29.4412,-92.0613,1012.77,11111222 
WAVCIS,ioos:station:WAVCIS:CSI03:1,2012-11-07T08:00:00Z,29.4412,-92.0613,1012.95,11111222 
WAVCIS,ioos:station:WAVCIS:CSI03:1,2012-11-07T09:00:00Z,29.4412,-92.0613,1012.83,11111222 
WAVCIS,ioos:station:WAVCIS:CSI03:1,2012-11-07T10:00:00Z,29.4412,-92.0613,1012.41,11111222 
WAVCIS,ioos:station:WAVCIS:CSI03:1,2012-11-07T11:00:00Z,29.4412,-92.0613,1012.63,11111222 
WAVCIS,ioos:station:WAVCIS:CSI03:1,2012-11-07T12:00:00Z,29.4412,-92.0613,1012.89,11111222 
WAVCIS,ioos:station:WAVCIS:CSI03:1,2012-11-07T13:00:00Z,29.4412,-92.0613,1013.38,11111222 
WAVCIS,ioos:station:WAVCIS:CSI03:1,2012-11-07T14:00:00Z,29.4412,-92.0613,1013.98,11111222 
WAVCIS,ioos:station:WAVCIS:CSI03:1,2012-11-07T15:00:00Z,29.4412,-92.0613,1014.28,11111222 
WAVCIS,ioos:station:WAVCIS:CSI03:1,2012-11-07T16:00:00Z,29.4412,-92.0613,1014.58,11111222 
WAVCIS,ioos:station:WAVCIS:CSI03:1,2012-11-07T17:00:00Z,29.4412,-92.0613,1014.27,11111222 
WAVCIS,ioos:station:WAVCIS:CSI03:1,2012-11-07T18:00:00Z,29.4412,-92.0613,1013.18,11111222 
WAVCIS,ioos:station:WAVCIS:CSI03:1,2012-11-07T19:00:00Z,29.4412,-92.0613,1012.28,11111222 
WAVCIS,ioos:station:WAVCIS:CSI03:1,2012-11-07T20:00:00Z,29.4412,-92.0613,1011.68,11111222 
WAVCIS,ioos:station:WAVCIS:CSI03:1,2012-11-07T21:00:00Z,29.4412,-92.0613,1011.2,11111222 
WAVCIS,ioos:station:WAVCIS:CSI03:1,2012-11-07T22:00:00Z,29.4412,-92.0613,1011.17,11111222 
WAVCIS,ioos:station:WAVCIS:CSI03:1,2012-11-07T23:00:00Z,29.4412,-92.0613,1011.33,11111222 
WAVCIS,ioos:station:WAVCIS:CSI03:1,2012-11-08T00:00:00Z,29.4412,-92.0613,1011.78,11111222 
WAVCIS,ioos:station:WAVCIS:CSI03:1,2012-11-08T01:00:00Z,29.4412,-92.0613,1012.24,11111222 
WAVCIS,ioos:station:WAVCIS:CSI03:1,2012-11-08T02:00:00Z,29.4412,-92.0613,1013.09,11111222 
WAVCIS,ioos:station:WAVCIS:CSI03:1,2012-11-08T03:00:00Z,29.4412,-92.0613,1013.72,11111222 
WAVCIS,ioos:station:WAVCIS:CSI03:1,2012-11-08T04:00:00Z,29.4412,-92.0613,1014.16,11111222 
WAVCIS,ioos:station:WAVCIS:CSI03:1,2012-11-08T05:00:00Z,29.4412,-92.0613,1014.54,11111222 
WAVCIS,ioos:station:WAVCIS:CSI03:1,2012-11-08T06:00:00Z,29.4412,-92.0613,1014.6,11111222 
WAVCIS,ioos:station:WAVCIS:CSI03:1,2012-11-08T07:00:00Z,29.4412,-92.0613,1014.6,11111222 
WAVCIS,ioos:station:WAVCIS:CSI03:1,2012-11-08T08:00:00Z,29.4412,-92.0613,1014.89,11111222 
WAVCIS,ioos:station:WAVCIS:CSI03:1,2012-11-08T09:00:00Z,29.4412,-92.0613,1014.69,11111222 
WAVCIS,ioos:station:WAVCIS:CSI03:1,2012-11-08T10:00:00Z,29.4412,-92.0613,1015.05,11111222 
WAVCIS,ioos:station:WAVCIS:CSI03:1,2012-11-08T11:00:00Z,29.4412,-92.0613,1015.44,11111222 
WAVCIS,ioos:station:WAVCIS:CSI03:1,2012-11-08T12:00:00Z,29.4412,-92.0613,1015.74,11111222 
WAVCIS,ioos:station:WAVCIS:CSI03:1,2012-11-08T13:00:00Z,29.4412,-92.0613,1016.32,11111222 
WAVCIS,ioos:station:WAVCIS:CSI03:1,2012-11-08T14:00:00Z,29.4412,-92.0613,1017.24,11111222 
WAVCIS,ioos:station:WAVCIS:CSI03:1,2012-11-08T15:00:00Z,29.4412,-92.0613,1017.72,11111222 
WAVCIS,ioos:station:WAVCIS:CSI03:1,2012-11-08T16:00:00Z,29.4412,-92.0613,1018.23,11111222 
WAVCIS,ioos:station:WAVCIS:CSI03:1,2012-11-08T17:00:00Z,29.4412,-92.0613,1017.91,11111222 
WAVCIS,ioos:station:WAVCIS:CSI03:1,2012-11-08T18:00:00Z,29.4412,-92.0613,1017.4,11111222 
WAVCIS,ioos:station:WAVCIS:CSI03:1,2012-11-08T19:00:00Z,29.4412,-92.0613,1016.19,11111222 
WAVCIS,ioos:station:WAVCIS:CSI03:1,2012-11-08T20:00:00Z,29.4412,-92.0613,1015.3,11111222 
WAVCIS,ioos:station:WAVCIS:CSI03:1,2012-11-08T21:00:00Z,29.4412,-92.0613,1015.07,11111222 
WAVCIS,ioos:station:WAVCIS:CSI03:1,2012-11-08T22:00:00Z,29.4412,-92.0613,1015.07,11111222 
WAVCIS,ioos:station:WAVCIS:CSI03:1,2012-11-08T23:00:00Z,29.4412,-92.0613,1015.12,11111222 
WAVCIS,ioos:station:WAVCIS:CSI03:1,2012-11-09T00:00:00Z,29.4412,-92.0613,1015.25,11111222 
WAVCIS,ioos:station:WAVCIS:CSI03:1,2012-11-09T01:00:00Z,29.4412,-92.0613,1015.54,11111222 
WAVCIS,ioos:station:WAVCIS:CSI03:1,2012-11-09T02:00:00Z,29.4412,-92.0613,1015.68,11111222 
WAVCIS,ioos:station:WAVCIS:CSI03:1,2012-11-09T03:00:00Z,29.4412,-92.0613,1015.82,11111222 
WAVCIS,ioos:station:WAVCIS:CSI03:1,2012-11-09T04:00:00Z,29.4412,-92.0613,1015.94,11111222 
WAVCIS,ioos:station:WAVCIS:CSI03:1,2012-11-09T05:00:00Z,29.4412,-92.0613,1015.33,11111222 
WAVCIS,ioos:station:WAVCIS:CSI03:1,2012-11-09T06:00:00Z,29.4412,-92.0613,1015.31,11111222 
WAVCIS,ioos:station:WAVCIS:CSI03:1,2012-11-09T07:00:00Z,29.4412,-92.0613,1014.8,11111222 
WAVCIS,ioos:station:WAVCIS:CSI03:1,2012-11-09T08:00:00Z,29.4412,-92.0613,1014.82,11111222 
WAVCIS,ioos:station:WAVCIS:CSI03:1,2012-11-09T09:00:00Z,29.4412,-92.0613,1014.75,11111222 
WAVCIS,ioos:station:WAVCIS:CSI03:1,2012-11-09T10:00:00Z,29.4412,-92.0613,1014.88,11111222 
WAVCIS,ioos:station:WAVCIS:CSI03:1,2012-11-09T11:00:00Z,29.4412,-92.0613,1015.03,11111222 
WAVCIS,ioos:station:WAVCIS:CSI03:1,2012-11-09T12:00:00Z,29.4412,-92.0613,1015.66,11111222 
WAVCIS,ioos:station:WAVCIS:CSI03:1,2012-11-09T13:00:00Z,29.4412,-92.0613,1016.01,11111222 
WAVCIS,ioos:station:WAVCIS:CSI03:1,2012-11-09T14:00:00Z,29.4412,-92.0613,1016.58,11111222 
WAVCIS,ioos:station:WAVCIS:CSI03:1,2012-11-09T15:00:00Z,29.4412,-92.0613,1016.83,11111222 
WAVCIS,ioos:station:WAVCIS:CSI03:1,2012-11-09T16:00:00Z,29.4412,-92.0613,1016.89,11111222 
WAVCIS,ioos:station:WAVCIS:CSI03:1,2012-11-09T17:00:00Z,29.4412,-92.0613,1016.56,11111222 
WAVCIS,ioos:station:WAVCIS:CSI03:1,2012-11-09T18:00:00Z,29.4412,-92.0613,1016.28,11111222 
WAVCIS,ioos:station:WAVCIS:CSI03:1,2012-11-09T19:00:00Z,29.4412,-92.0613,1015.62,11111222 
WAVCIS,ioos:station:WAVCIS:CSI03:1,2012-11-09T20:00:00Z,29.4412,-92.0613,1014.89,11111222 
WAVCIS,ioos:station:WAVCIS:CSI03:1,2012-11-09T21:00:00Z,29.4412,-92.0613,1014.43,11111222 
WAVCIS,ioos:station:WAVCIS:CSI03:1,2012-11-09T22:00:00Z,29.4412,-92.0613,1014.59,11111222 
WAVCIS,ioos:station:WAVCIS:CSI03:1,2012-11-09T23:00:00Z,29.4412,-92.0613,1014.51,11111222 
WAVCIS,ioos:station:WAVCIS:CSI03:1,2012-11-10T00:00:00Z,29.4412,-92.0613,1014.47,11111222 
WAVCIS,ioos:station:WAVCIS:CSI03:1,2012-11-10T01:00:00Z,29.4412,-92.0613,1014.7,11111222 
WAVCIS,ioos:station:WAVCIS:CSI03:1,2012-11-10T02:00:00Z,29.4412,-92.0613,1014.96,11111222 
WAVCIS,ioos:station:WAVCIS:CSI03:1,2012-11-10T03:00:00Z,29.4412,-92.0613,1014.96,11111222 
WAVCIS,ioos:station:WAVCIS:CSI03:1,2012-11-10T04:00:00Z,29.4412,-92.0613,1015.1,11111222 
WAVCIS,ioos:station:WAVCIS:CSI03:1,2012-11-10T05:00:00Z,29.4412,-92.0613,1015.01,11111222 
WAVCIS,ioos:station:WAVCIS:CSI03:1,2012-11-10T06:00:00Z,29.4412,-92.0613,1014.73,11111222 
WAVCIS,ioos:station:WAVCIS:CSI03:1,2012-11-10T07:00:00Z,29.4412,-92.0613,1014.59,11111222 
WAVCIS,ioos:station:WAVCIS:CSI03:1,2012-11-10T08:00:00Z,29.4412,-92.0613,1014.15,11111222 
WAVCIS,ioos:station:WAVCIS:CSI03:1,2012-11-10T09:00:00Z,29.4412,-92.0613,1014.01,11111222 
WAVCIS,ioos:station:WAVCIS:CSI03:1,2012-11-10T10:00:00Z,29.4412,-92.0613,1014.07,11111222 
WAVCIS,ioos:station:WAVCIS:CSI03:1,2012-11-10T11:00:00Z,29.4412,-92.0613,1014.02,11111222 
WAVCIS,ioos:station:WAVCIS:CSI03:1,2012-11-10T12:00:00Z,29.4412,-92.0613,1014.19,11111222 
WAVCIS,ioos:station:WAVCIS:CSI03:1,2012-11-10T13:00:00Z,29.4412,-92.0613,1014.12,11111222 
WAVCIS,ioos:station:WAVCIS:CSI03:1,2012-11-10T14:00:00Z,29.4412,-92.0613,1014.69,11111222 
WAVCIS,ioos:station:WAVCIS:CSI03:1,2012-11-10T15:00:00Z,29.4412,-92.0613,1015.29,11111222 
WAVCIS,ioos:station:WAVCIS:CSI03:1,2012-11-10T16:00:00Z,29.4412,-92.0613,1015.11,11111222 
WAVCIS,ioos:station:WAVCIS:CSI03:1,2012-11-10T17:00:00Z,29.4412,-92.0613,1015.25,11111222 
WAVCIS,ioos:station:WAVCIS:CSI03:1,2012-11-10T18:00:00Z,29.4412,-92.0613,1014.76,11111222 
WAVCIS,ioos:station:WAVCIS:CSI03:1,2012-11-10T19:00:00Z,29.4412,-92.0613,1013.95,11111222 
WAVCIS,ioos:station:WAVCIS:CSI03:1,2012-11-10T20:00:00Z,29.4412,-92.0613,1012.76,11111222 
WAVCIS,ioos:station:WAVCIS:CSI03:1,2012-11-10T21:00:00Z,29.4412,-92.0613,1012.59,11111222 
WAVCIS,ioos:station:WAVCIS:CSI03:1,2012-11-10T22:00:00Z,29.4412,-92.0613,1012.58,11111222 
WAVCIS,ioos:station:WAVCIS:CSI03:1,2012-11-10T23:00:00Z,29.4412,-92.0613,1012.43,11111222 
WAVCIS,ioos:station:WAVCIS:CSI03:1,2012-11-11T00:00:00Z,29.4412,-92.0613,1012.64,11111222 
WAVCIS,ioos:station:WAVCIS:CSI03:1,2012-11-11T01:00:00Z,29.4412,-92.0613,1012.06,11111222 
WAVCIS,ioos:station:WAVCIS:CSI03:1,2012-11-11T02:00:00Z,29.4412,-92.0613,1012.57,11111222 
WAVCIS,ioos:station:WAVCIS:CSI03:1,2012-11-11T03:00:00Z,29.4412,-92.0613,1011.4,11111222 
WAVCIS,ioos:station:WAVCIS:CSI03:1,2012-11-11T04:00:00Z,29.4412,-92.0613,1011.96,11111222 
WAVCIS,ioos:station:WAVCIS:CSI03:1,2012-11-11T05:00:00Z,29.4412,-92.0613,1012.14,11111222 
WAVCIS,ioos:station:WAVCIS:CSI03:1,2012-11-11T06:00:00Z,29.4412,-92.0613,1011.57,11111222 
WAVCIS,ioos:station:WAVCIS:CSI03:1,2012-11-11T07:00:00Z,29.4412,-92.0613,1011.2,11111222 
WAVCIS,ioos:station:WAVCIS:CSI03:1,2012-11-11T08:00:00Z,29.4412,-92.0613,1010.84,11111222 
WAVCIS,ioos:station:WAVCIS:CSI03:1,2012-11-11T09:00:00Z,29.4412,-92.0613,1010.22,11111222 
WAVCIS,ioos:station:WAVCIS:CSI03:1,2012-11-11T10:00:00Z,29.4412,-92.0613,1009.75,11111222 
WAVCIS,ioos:station:WAVCIS:CSI03:1,2012-11-11T11:00:00Z,29.4412,-92.0613,1009.87,11111222 
WAVCIS,ioos:station:WAVCIS:CSI03:1,2012-11-11T12:00:00Z,29.4412,-92.0613,1009.76,11111222 
WAVCIS,ioos:station:WAVCIS:CSI03:1,2012-11-11T13:00:00Z,29.4412,-92.0613,1009.45,11111222 
WAVCIS,ioos:station:WAVCIS:CSI03:1,2012-11-11T14:00:00Z,29.4412,-92.0613,1010.32,11111222 
WAVCIS,ioos:station:WAVCIS:CSI03:1,2012-11-11T15:00:00Z,29.4412,-92.0613,1011.46,11111222 
WAVCIS,ioos:station:WAVCIS:CSI03:1,2012-11-11T16:00:00Z,29.4412,-92.0613,1011.86,11111222 
WAVCIS,ioos:station:WAVCIS:CSI03:1,2012-11-11T17:00:00Z,29.4412,-92.0613,1011.63,11111222 
WAVCIS,ioos:station:WAVCIS:CSI03:1,2012-11-11T18:00:00Z,29.4412,-92.0613,1011.1,11111222 
WAVCIS,ioos:station:WAVCIS:CSI03:1,2012-11-11T19:00:00Z,29.4412,-92.0613,1010.5,11111222 
WAVCIS,ioos:station:WAVCIS:CSI03:1,2012-11-11T20:00:00Z,29.4412,-92.0613,1009.71,11111222 
WAVCIS,ioos:station:WAVCIS:CSI03:1,2012-11-11T21:00:00Z,29.4412,-92.0613,1009.61,11111222 
WAVCIS,ioos:station:WAVCIS:CSI03:1,2012-11-11T22:00:00Z,29.4412,-92.0613,1009.6,11111222 